RYR8HU EPWA-LOWW

Flight info

Callsign RYR8HU
Flight time 0h 49m
Altitude 34000
Route EVINA N744 TUSIN DCT MIKOV MIKOV8W
Aircraft A320/M-SDE3FGHIRWY/LB1

Departure

Time 2026-04-30 18:56
Airport Warsaw Chopin Airport (EPWA)

Arrival

Time 2026-04-30 19:45
Airport Vienna International Airport (LOWW)
Time Latitude Longitude Altitude Speed Heading
2026-04-30 18:26 52.17612 20.96679 358 ft 0 kts 236°
2026-04-30 18:46 52.17624 20.96704 360 ft 4 kts 223°
2026-04-30 18:47 52.17645 20.96726 357 ft 4 kts 187°
2026-04-30 18:47 52.17665 20.96721 357 ft 1 kts 146°
2026-04-30 18:47 52.17668 20.96718 356 ft 0 kts 146°
2026-04-30 18:49 52.17647 20.96741 357 ft 7 kts 146°
2026-04-30 18:50 52.17597 20.96760 353 ft 6 kts 216°
2026-04-30 18:50 52.17574 20.96696 352 ft 6 kts 239°
2026-04-30 18:50 52.17544 20.96611 356 ft 11 kts 239°
2026-04-30 18:50 52.17481 20.96488 356 ft 17 kts 234°
2026-04-30 18:51 52.17409 20.96378 358 ft 8 kts 163°
2026-04-30 18:51 52.17353 20.96431 357 ft 13 kts 152°
2026-04-30 18:51 52.17275 20.96498 356 ft 13 kts 151°
2026-04-30 18:51 52.17182 20.96580 352 ft 18 kts 152°
2026-04-30 18:52 52.17057 20.96689 354 ft 23 kts 152°
2026-04-30 18:52 52.16914 20.96815 357 ft 24 kts 152°
2026-04-30 18:52 52.16761 20.96948 351 ft 26 kts 152°
2026-04-30 18:52 52.16649 20.97105 353 ft 21 kts 113°
2026-04-30 18:53 52.16587 20.97325 359 ft 22 kts 114°
2026-04-30 18:53 52.16526 20.97543 356 ft 21 kts 114°
2026-04-30 18:53 52.16468 20.97745 355 ft 18 kts 115°
2026-04-30 18:53 52.16391 20.97790 352 ft 13 kts 206°
2026-04-30 18:54 52.16314 20.97728 353 ft 12 kts 206°
2026-04-30 18:54 52.16299 20.97690 357 ft 1 kts 294°
2026-04-30 18:54 52.16300 20.97689 357 ft 0 kts 296°
2026-04-30 18:55 52.16311 20.97650 353 ft 13 kts 296°
2026-04-30 18:56 52.16797 20.95924 361 ft 146 kts 295°
2026-04-30 18:56 52.17211 20.94445 1013 ft 139 kts 296°
2026-04-30 18:56 52.17607 20.93027 1733 ft 130 kts 296°
2026-04-30 18:57 52.18274 20.90017 2385 ft 170 kts 266°
2026-04-30 18:57 52.17989 20.87997 2775 ft 195 kts 259°
2026-04-30 18:57 52.17446 20.85821 3152 ft 224 kts 234°
2026-04-30 18:58 52.14394 20.83161 4304 ft 270 kts 203°
2026-04-30 18:58 52.12613 20.82056 5180 ft 278 kts 202°
2026-04-30 18:58 52.10783 20.80933 6057 ft 285 kts 203°
2026-04-30 18:59 52.07320 20.77557 7747 ft 296 kts 214°
2026-04-30 19:00 52.01982 20.71981 10303 ft 316 kts 214°
2026-04-30 19:00 52.00060 20.69976 10597 ft 340 kts 213°
2026-04-30 19:00 51.95888 20.65623 11665 ft 366 kts 213°
2026-04-30 19:01 51.91536 20.61092 13153 ft 377 kts 213°
2026-04-30 19:01 51.89315 20.58786 13902 ft 382 kts 213°
2026-04-30 19:02 51.84772 20.54074 15191 ft 393 kts 213°
2026-04-30 19:02 51.80106 20.49242 16440 ft 403 kts 213°
2026-04-30 19:03 51.75349 20.44332 17668 ft 414 kts 213°
2026-04-30 19:03 51.70438 20.39277 18847 ft 424 kts 213°
2026-04-30 19:04 51.65407 20.34118 19896 ft 434 kts 212°
2026-04-30 19:04 51.60256 20.28843 20943 ft 444 kts 212°
2026-04-30 19:05 51.54986 20.23466 21974 ft 454 kts 212°
2026-04-30 19:05 51.49597 20.17992 23002 ft 463 kts 212°
2026-04-30 19:06 51.44105 20.12409 23997 ft 472 kts 212°
2026-04-30 19:06 51.41322 20.09584 24405 ft 476 kts 212°
2026-04-30 19:06 51.35674 20.03867 25174 ft 484 kts 211°
2026-04-30 19:07 51.29924 19.98072 25909 ft 492 kts 211°
2026-04-30 19:07 51.27017 19.95145 26284 ft 496 kts 211°
2026-04-30 19:08 51.21139 19.89248 26995 ft 503 kts 210°
2026-04-30 19:08 51.15175 19.83294 27652 ft 510 kts 210°
2026-04-30 19:08 51.12154 19.80282 27998 ft 513 kts 210°
2026-04-30 19:09 51.06064 19.74216 28678 ft 520 kts 210°
2026-04-30 19:09 51.04033 19.72193 28903 ft 522 kts 210°
2026-04-30 19:09 51.00946 19.69128 29217 ft 525 kts 210°
2026-04-30 19:10 50.94709 19.62967 29827 ft 531 kts 209°
2026-04-30 19:10 50.88399 19.56751 30399 ft 537 kts 209°
2026-04-30 19:11 50.85217 19.53616 30660 ft 539 kts 209°
2026-04-30 19:11 50.78828 19.47338 31206 ft 542 kts 209°
2026-04-30 19:11 50.75624 19.44199 31469 ft 543 kts 209°
2026-04-30 19:12 50.72414 19.41056 31732 ft 543 kts 209°
2026-04-30 19:12 50.69208 19.37920 32085 ft 541 kts 209°
2026-04-30 19:12 50.66008 19.34801 32460 ft 540 kts 209°
2026-04-30 19:13 50.59656 19.28633 33223 ft 534 kts 210°
2026-04-30 19:13 50.53355 19.22524 33958 ft 530 kts 210°
2026-04-30 19:13 50.50216 19.19492 34296 ft 529 kts 210°
2026-04-30 19:14 50.47089 19.16479 34375 ft 524 kts 210°
2026-04-30 19:14 50.40921 19.10538 34381 ft 518 kts 210°
2026-04-30 19:15 50.34801 19.04655 34380 ft 517 kts 210°
2026-04-30 19:15 50.25636 18.95899 34389 ft 517 kts 210°
2026-04-30 19:16 50.19476 18.90032 34393 ft 514 kts 210°
2026-04-30 19:17 50.10362 18.81392 34397 ft 513 kts 210°
2026-04-30 19:17 50.01202 18.72736 34411 ft 513 kts 210°
2026-04-30 19:18 49.92055 18.64123 34412 ft 512 kts 210°
2026-04-30 19:19 49.86061 18.58168 34405 ft 512 kts 218°
2026-04-30 19:19 49.78858 18.46054 34420 ft 510 kts 233°
2026-04-30 19:20 49.74384 18.37570 34418 ft 510 kts 232°
2026-04-30 19:21 49.67634 18.24846 34383 ft 511 kts 232°
2026-04-30 19:22 49.58575 18.07849 34394 ft 513 kts 232°
2026-04-30 19:23 49.44957 17.82478 34413 ft 514 kts 232°
2026-04-30 19:24 49.38117 17.69830 34414 ft 513 kts 232°
2026-04-30 19:25 49.26705 17.48878 34347 ft 509 kts 231°
2026-04-30 19:26 49.22171 17.40598 32747 ft 509 kts 231°
2026-04-30 19:26 49.17629 17.32329 31458 ft 506 kts 231°
2026-04-30 19:26 49.15368 17.28226 30854 ft 503 kts 231°
2026-04-30 19:27 49.10878 17.20083 29650 ft 497 kts 230°
2026-04-30 19:27 49.06470 17.12117 28606 ft 486 kts 230°
2026-04-30 19:28 49.04326 17.08255 28082 ft 481 kts 230°
2026-04-30 19:28 49.00039 17.00556 27061 ft 472 kts 230°
2026-04-30 19:29 48.95835 16.93014 26087 ft 463 kts 230°
2026-04-30 19:29 48.93758 16.89295 25563 ft 460 kts 230°
2026-04-30 19:30 48.87613 16.78319 24197 ft 449 kts 230°
2026-04-30 19:30 48.83592 16.71177 23249 ft 441 kts 229°
2026-04-30 19:31 48.78797 16.65691 22321 ft 428 kts 200°
2026-04-30 19:31 48.75988 16.64400 21871 ft 417 kts 185°
2026-04-30 19:31 48.70407 16.64742 20980 ft 393 kts 161°
2026-04-30 19:32 48.67742 16.65623 20498 ft 391 kts 161°
2026-04-30 19:32 48.65095 16.66493 20049 ft 388 kts 161°
2026-04-30 19:32 48.62460 16.67350 19608 ft 386 kts 163°
2026-04-30 19:32 48.59768 16.67671 19186 ft 391 kts 178°
2026-04-30 19:33 48.57072 16.67040 18772 ft 394 kts 193°
2026-04-30 19:33 48.54535 16.65471 18313 ft 395 kts 208°
2026-04-30 19:33 48.52284 16.63126 17869 ft 392 kts 217°
2026-04-30 19:33 48.50105 16.60679 17435 ft 388 kts 212°
2026-04-30 19:34 48.47747 16.58895 17014 ft 383 kts 197°
2026-04-30 19:34 48.45182 16.58009 16600 ft 375 kts 181°
2026-04-30 19:34 48.40194 16.58872 15553 ft 355 kts 159°
2026-04-30 19:35 48.37826 16.59886 14995 ft 352 kts 159°
2026-04-30 19:35 48.35478 16.60880 14456 ft 349 kts 159°
2026-04-30 19:35 48.33149 16.61856 13876 ft 346 kts 159°
2026-04-30 19:35 48.30846 16.62818 13260 ft 340 kts 160°
2026-04-30 19:36 48.28583 16.63765 12462 ft 335 kts 160°
2026-04-30 19:36 48.26350 16.64703 11676 ft 331 kts 161°
2026-04-30 19:36 48.22138 16.66465 10925 ft 302 kts 161°
2026-04-30 19:37 48.20131 16.67309 10372 ft 299 kts 161°
2026-04-30 19:37 48.18138 16.68146 9992 ft 294 kts 161°
2026-04-30 19:37 48.16177 16.68965 9307 ft 292 kts 162°
2026-04-30 19:37 48.14231 16.69776 8604 ft 289 kts 162°
2026-04-30 19:38 48.12287 16.70590 8145 ft 289 kts 162°
2026-04-30 19:38 48.10356 16.71395 7752 ft 287 kts 162°
2026-04-30 19:38 48.08434 16.72196 7351 ft 286 kts 162°
2026-04-30 19:38 48.06523 16.72993 6956 ft 284 kts 162°
2026-04-30 19:39 48.04624 16.73785 6545 ft 283 kts 162°
2026-04-30 19:39 48.02731 16.74573 6103 ft 282 kts 162°
2026-04-30 19:39 48.00844 16.75358 5666 ft 281 kts 162°
2026-04-30 19:39 47.98968 16.76136 5319 ft 277 kts 162°
2026-04-30 19:40 47.97105 16.76605 5063 ft 269 kts 184°
2026-04-30 19:40 47.95385 16.75710 4801 ft 260 kts 219°
2026-04-30 19:40 47.94297 16.73684 4542 ft 247 kts 252°
2026-04-30 19:40 47.93830 16.71278 4281 ft 235 kts 266°
2026-04-30 19:41 47.93861 16.68948 4014 ft 216 kts 288°
2026-04-30 19:41 47.94393 16.66953 3761 ft 202 kts 307°
2026-04-30 19:41 47.95279 16.65419 3476 ft 190 kts 325°
2026-04-30 19:41 47.96383 16.64428 3225 ft 182 kts 341°
2026-04-30 19:42 47.97566 16.63894 2972 ft 174 kts 347°
2026-04-30 19:42 47.98719 16.63409 2738 ft 172 kts 347°
2026-04-30 19:42 47.99865 16.62927 2499 ft 169 kts 347°
2026-04-30 19:42 48.00948 16.62470 2280 ft 153 kts 348°
2026-04-30 19:43 48.01931 16.62056 2077 ft 142 kts 347°
2026-04-30 19:43 48.02866 16.61663 1891 ft 138 kts 347°
2026-04-30 19:43 48.03782 16.61277 1712 ft 136 kts 347°
2026-04-30 19:44 48.05605 16.60509 1319 ft 137 kts 346°
2026-04-30 19:44 48.06524 16.60122 1124 ft 137 kts 345°
2026-04-30 19:44 48.07442 16.59734 937 ft 139 kts 345°
2026-04-30 19:44 48.08355 16.59347 751 ft 139 kts 345°
2026-04-30 19:45 48.09284 16.58951 623 ft 134 kts 346°
2026-04-30 19:45 48.10042 16.58637 612 ft 88 kts 344°
2026-04-30 19:45 48.10481 16.58450 621 ft 54 kts 345°
2026-04-30 19:45 48.10744 16.58250 620 ft 32 kts 304°
2026-04-30 19:46 48.10881 16.58050 610 ft 26 kts 316°
2026-04-30 19:46 48.11012 16.57851 619 ft 28 kts 314°
2026-04-30 19:46 48.11153 16.57727 614 ft 21 kts 310°
2026-04-30 19:46 48.11221 16.57520 619 ft 23 kts 296°
2026-04-30 19:47 48.11286 16.57321 624 ft 20 kts 296°
2026-04-30 19:47 48.11328 16.57191 610 ft 22 kts 296°
2026-04-30 19:47 48.11414 16.56928 612 ft 19 kts 296°
2026-04-30 19:47 48.11476 16.56739 618 ft 21 kts 296°
2026-04-30 19:48 48.11542 16.56535 622 ft 20 kts 296°